This demonstration page uses our WeatherBlox Daily Observations layout. Learn more.

Left ArrowRight Arrow

40.92945, -100.16068

Hourly Observations for April 26, 2020

Temp ( °F °C ) Dew Point ( °F °C ) Humidity (%) Winds ( mph kmh ) Pressure ( in mb ) Visibility ( mi km ) Precip ( " mm )
12:15 am 00:15 Clear 38 3.2 32 0 80 80 NW 3 6 30.21 1023 10 16 0.00 0.00
12:35 am 00:35 Clear 38 3.5 33 0.6 82 82 Calm 30.20 1023 10 16 0.00 0.00
12:55 am 00:55 Clear 38 3.4 32 0.1 79 79 N 6 9 30.20 1023 10 16 0.00 0.00
1:15 am 01:15 Clear 38 3.3 32 0.2 80 80 NNW 3 6 30.20 1023 10 16 0.00 0.00
1:35 am 01:35 Clear 35 1.8 31 -0.4 86 86 W 3 6 30.22 1023 10 16 0.00 0.00
1:55 am 01:55 Clear 36 2.2 32 0 86 86 W 3 6 30.22 1023 10 16 0.00 0.00
2:15 am 02:15 Clear 34 1.2 31 -0.4 89 89 Calm 30.23 1024 10 16 0.00 0.00
2:35 am 02:35 Clear 35 1.5 31 -0.7 85 85 Calm 30.22 1023 10 16 0.00 0.00
2:55 am 02:55 Clear 34 1.1 31 -0.7 88 88 Calm 30.23 1024 10 16 0.00 0.00
3:15 am 03:15 Clear 34 0.9 31 -0.7 89 89 Calm 30.22 1023 10 16 0.00 0.00
3:35 am 03:35 Clear 34 0.9 31 -0.7 89 89 Calm 30.22 1023 10 16 0.00 0.00
3:55 am 03:55 Clear 33 0.5 31 -0.5 93 93 W 6 9 30.23 1024 10 16 0.00 0.00
4:15 am 04:15 Mostly Cloudy 35 1.4 32 0 91 91 WNW 5 7 30.22 1023 10 16 0.00 0.00
4:35 am 04:35 Mostly Cloudy 35 1.9 33 0.4 90 90 WNW 3 6 30.22 1023 10 16 0.00 0.00
4:55 am 04:55 Cloudy 35 1.5 32 0.2 91 91 Calm 30.21 1023 10 16 0.00 0.00
5:15 am 05:15 Partly Cloudy 35 1.6 32 0 89 89 Calm 30.21 1023 10 16 0.00 0.00
5:35 am 05:35 Partly Cloudy 34 1.3 32 0 91 91 Calm 30.21 1023 10 16 0.00 0.00
5:55 am 05:55 Partly Cloudy 34 1 32 -0.1 92 92 Calm 30.22 1023 10 16 0.00 0.00
6:15 am 06:15 Clear 34 1.2 32 -0.1 91 91 Calm 30.22 1023 10 16 0.00 0.00
6:35 am 06:35 Partly Cloudy 34 1.1 31 -0.6 89 89 Calm 30.22 1023 10 16 0.00 0.00
6:55 am 06:55 Mostly Cloudy 33 0.6 31 -0.5 92 92 Calm 30.22 1023 10 16 0.00 0.00
7:15 am 07:15 Partly Cloudy 34 1.3 32 -0.1 91 91 Calm 30.21 1023 10 16 0.00 0.00
7:35 am 07:35 Partly Cloudy 36 2.1 33 0.7 91 91 Calm 30.20 1023 10 16 0.00 0.00
7:55 am 07:55 Partly Cloudy 39 4 37 2.5 90 90 Calm 30.18 1022 10 16 0.00 0.00
8:15 am 08:15 Cloudy 42 5.6 38 3.6 87 87 Calm 30.16 1021 10 16 0.00 0.00
8:35 am 08:35 Cloudy 43 6.2 38 3.1 81 81 Calm 30.16 1021 10 16 0.00 0.00
8:55 am 08:55 Partly Cloudy 46 7.6 39 3.8 77 77 SSE 3 6 30.14 1021 10 16 0.00 0.00
9:15 am 09:15 Partly Cloudy 52 11.1 38 3.2 59 59 SSE 7 11 30.10 1019 10 16 0.00 0.00
9:35 am 09:35 Mostly Cloudy 56 13.1 35 1.5 46 46 S 14 22 30.08 1019 10 16 0.00 0.00
9:55 am 09:55 Mostly Cloudy 56 13.4 34 1.1 43 43 S 13 20 30.07 1018 10 16 0.00 0.00
10:15 am 10:15 Sunny 60 15.3 34 0.9 38 38 S 18 30 30.04 1017 10 16 0.00 0.00
10:35 am 10:35 Sunny 61 16.3 33 0.4 34 34 S 18 30 30.01 1016 10 16 0.00 0.00
10:55 am 10:55 Sunny 63 17.4 34 1.1 34 34 S 22 35 30.00 1016 10 16 0.00 0.00
11:15 am 11:15 Sunny 64 18 34 1.1 32 32 S 23 37 29.98 1015 10 16 0.00 0.00
11:35 am 11:35 Sunny 65 18.2 35 1.4 33 33 SSE 24 39 29.97 1015 10 16 0.00 0.00
11:55 am 11:55 Sunny 66 19.1 34 1.3 31 31 SSE 25 41 29.96 1015 10 16 0.00 0.00
12:15 pm 12:15 Sunny 67 19.5 34 1.1 29 29 S 23 37 29.94 1014 10 16 0.00 0.00
12:35 pm 12:35 Sunny 69 20.6 36 2.3 30 30 S 24 39 29.93 1013 10 16 0.00 0.00
12:55 pm 12:55 Sunny 70 21.3 38 3.2 30 30 S 23 37 29.91 1013 10 16 0.00 0.00
1:15 pm 13:15 Sunny 71 21.7 38 3.4 30 30 S 21 33 29.89 1012 10 16 0.00 0.00
1:35 pm 13:35 Sunny 72 22.1 39 4 31 31 S 21 33 29.87 1012 10 16 0.00 0.00
1:55 pm 13:55 Sunny 73 22.6 40 4.5 31 31 S 22 35 29.87 1012 10 16 0.00 0.00
2:15 pm 14:15 Sunny 73 22.9 40 4.6 30 30 S 21 33 29.86 1011 10 16 0.00 0.00
2:35 pm 14:35 Sunny 74 23.5 42 5.4 31 31 S 28 44 29.83 1010 10 16 0.00 0.00
2:55 pm 14:55 Sunny 74 23.5 42 5.7 32 32 SSW 18 30 29.83 1010 10 16 0.00 0.00
3:15 pm 15:15 Sunny 75 24.1 43 6.1 31 31 SSW 22 35 29.82 1010 10 16 0.00 0.00
3:35 pm 15:35 Sunny 77 24.8 44 6.4 31 31 SSW 23 37 29.80 1009 10 16 0.00 0.00
3:55 pm 15:55 Sunny 77 25.1 43 5.9 29 29 S 17 28 29.79 1009 10 16 0.00 0.00
4:15 pm 16:15 Sunny 76 24.3 44 6.6 32 32 S 23 37 29.78 1008 10 16 0.00 0.00
4:35 pm 16:35 Partly Cloudy 75 24 44 6.5 33 33 SSE 17 28 29.78 1008 10 16 0.00 0.00
4:55 pm 16:55 Partly Cloudy 78 25.4 45 7.1 31 31 SSW 17 28 29.76 1008 10 16 0.00 0.00
5:15 pm 17:15 Sunny 78 25.6 45 7 31 31 S 17 28 29.75 1007 10 16 0.00 0.00
5:35 pm 17:35 Sunny 78 25.3 44 6.9 31 31 S 22 35 29.74 1007 10 16 0.00 0.00
5:55 pm 17:55 Partly Cloudy 78 25.6 45 7.4 31 31 SSW 13 20 29.75 1007 10 16 0.00 0.00
6:15 pm 18:15 Partly Cloudy 78 25.7 44 6.8 30 30 S 13 20 29.73 1007 10 16 0.00 0.00
6:35 pm 18:35 Mostly Cloudy 76 24.6 42 5.3 29 29 SSW 7 11 29.74 1007 10 16 0.00 0.00
6:55 pm 18:55 Partly Cloudy 74 23.6 42 5.6 31 31 S 9 15 29.75 1008 10 16 0.00 0.00
7:15 pm 19:15 Sunny 73 22.8 44 6.4 35 35 S 7 11 29.76 1008 10 16 0.00 0.00
7:35 pm 19:35 Partly Cloudy 71 21.6 44 6.7 38 38 S 9 15 29.77 1008 10 16 0.00 0.00
7:55 pm 19:55 Mostly Cloudy 70 21 44 6.5 39 39 S 10 17 29.78 1009 10 16 0.00 0.00
8:15 pm 20:15 Mostly Cloudy 71 21.4 43 6.1 37 37 SSE 9 15 29.78 1008 10 16 0.00 0.00
8:35 pm 20:35 Mostly Cloudy 70 21 46 7.6 42 42 SW 8 13 29.79 1009 10 16 0.00 0.00
8:55 pm 20:55 Cloudy 71 21.7 46 7.8 41 41 S 3 6 29.80 1009 10 16 0.00 0.00
9:15 pm 21:15 Cloudy 70 21.3 45 7.3 41 41 SSW 6 9 29.80 1009 10 16 0.00 0.00
9:35 pm 21:35 Mostly Cloudy 74 23.3 38 3.3 27 27 W 14 22 29.79 1009 10 16 0.00 0.00
9:55 pm 21:55 Mostly Cloudy 71 21.8 39 4 31 31 WSW 12 19 29.82 1010 10 16 0.00 0.00
10:15 pm 22:15 Partly Cloudy 71 21.5 39 4 32 32 WSW 13 20 29.82 1010 10 16 0.00 0.00
10:35 pm 22:35 Clear 70 21.3 40 4.6 34 34 SW 16 26 29.84 1011 10 16 0.00 0.00
10:55 pm 22:55 Partly Cloudy 69 20.5 42 5.6 38 38 SW 13 20 29.85 1011 10 16 0.00 0.00
11:15 pm 23:15 Clear 69 20.4 43 6 39 39 WSW 15 24 29.86 1011 10 16 0.00 0.00
11:35 pm 23:35 Clear 67 19.6 44 6.5 43 43 SW 14 22 29.85 1011 10 16 0.00 0.00
11:55 pm 23:55 Clear 65 18.4 44 6.6 46 46 SW 13 20 29.86 1011 10 16 0.00 0.00

Powered by AerisWeather